Time,TemperatureF,DewpointF,PressureIn,WindDirection,WindDirectionDegrees,WindSpeedMPH,WindSpeedGustMPH,Humidity,HourlyPrecipIn,Conditions,Clouds,dailyrainin,SoftwareType,DateUTC
2013-09-18 00:00:00,67.1,64.1,29.76,SSE,157,4.0,9.0,90,0.00,,,0.00,Wunderground v.1.15,2013-09-18 05:00:00,
2013-09-18 00:05:00,67.2,64.2,29.76,SSE,165,4.0,9.0,90,0.00,,,0.00,Wunderground v.1.15,2013-09-18 05:05:00,
2013-09-18 00:10:00,67.4,64.4,29.76,South,172,4.0,4.0,90,0.00,,,0.00,Wunderground v.1.15,2013-09-18 05:10:00,
2013-09-18 00:15:00,67.4,64.4,29.75,South,173,5.0,5.0,90,0.00,,,0.00,Wunderground v.1.15,2013-09-18 05:15:00,
2013-09-18 00:25:00,67.6,64.9,29.75,South,170,5.0,9.0,91,0.00,,,0.00,Wunderground v.1.15,2013-09-18 05:25:00,
2013-09-18 00:30:00,67.8,65.1,29.75,SSE,156,6.0,9.0,91,0.00,,,0.00,Wunderground v.1.15,2013-09-18 05:30:00,
2013-09-18 00:35:00,67.8,65.1,29.75,SSW,205,7.0,9.0,91,0.00,,,0.00,Wunderground v.1.15,2013-09-18 05:35:00,
2013-09-18 00:40:00,67.7,64.7,29.75,South,171,6.0,6.0,90,0.00,,,0.00,Wunderground v.1.15,2013-09-18 05:40:00,
2013-09-18 00:50:00,68.0,65.0,29.75,South,175,7.0,7.0,90,0.00,,,0.00,Wunderground v.1.15,2013-09-18 05:50:00,
2013-09-18 01:00:00,67.9,64.9,29.74,South,170,6.0,6.0,90,0.00,,,0.00,Wunderground v.1.15,2013-09-18 06:00:00,
2013-09-18 01:10:00,67.9,64.9,29.74,SSE,161,5.0,5.0,90,0.00,,,0.00,Wunderground v.1.15,2013-09-18 06:10:00,
2013-09-18 01:15:00,68.0,65.0,29.74,SSE,155,5.0,6.0,90,0.00,,,0.00,Wunderground v.1.15,2013-09-18 06:15:00,
2013-09-18 01:20:00,68.1,65.1,29.74,South,186,6.0,9.0,90,0.00,,,0.00,Wunderground v.1.15,2013-09-18 06:20:00,
2013-09-18 01:30:00,68.2,65.2,29.73,South,182,5.0,5.0,90,0.00,,,0.00,Wunderground v.1.15,2013-09-18 06:30:00,
2013-09-18 01:40:00,68.2,65.2,29.74,South,173,5.0,9.0,90,0.00,,,0.00,Wunderground v.1.15,2013-09-18 06:40:00,
2013-09-18 01:50:00,68.1,65.1,29.73,South,187,5.0,5.0,90,0.00,,,0.00,Wunderground v.1.15,2013-09-18 06:50:00,
2013-09-18 02:00:00,67.9,64.9,29.73,South,181,4.0,4.0,90,0.00,,,0.00,Wunderground v.1.15,2013-09-18 07:00:00,
2013-09-18 02:05:00,67.9,64.9,29.73,SSW,193,4.0,5.0,90,0.00,,,0.00,Wunderground v.1.15,2013-09-18 07:05:00,
2013-09-18 02:15:00,68.3,65.6,29.72,SSW,194,6.0,9.0,91,0.00,,,0.00,Wunderground v.1.15,2013-09-18 07:15:00,
2013-09-18 02:20:00,68.4,65.4,29.72,South,176,7.0,9.0,90,0.00,,,0.00,Wunderground v.1.15,2013-09-18 07:20:00,
2013-09-18 02:30:00,68.5,65.4,29.72,South,178,7.0,9.0,90,0.00,,,0.00,Wunderground v.1.15,2013-09-18 07:30:00,
2013-09-18 02:40:00,68.5,65.4,29.72,South,175,7.0,9.0,90,0.00,,,0.00,Wunderground v.1.15,2013-09-18 07:40:00,
2013-09-18 02:50:00,68.5,65.4,29.71,SSW,200,7.0,7.0,90,0.00,,,0.00,Wunderground v.1.15,2013-09-18 07:50:00,
2013-09-18 03:00:00,68.4,65.4,29.71,SSE,160,6.0,6.0,90,0.00,,,0.00,Wunderground v.1.15,2013-09-18 08:00:00,
2013-09-18 03:10:00,68.4,65.4,29.71,South,186,6.0,6.0,90,0.00,,,0.00,Wunderground v.1.15,2013-09-18 08:10:00,
2013-09-18 03:15:00,68.4,65.4,29.71,South,172,6.0,9.0,90,0.00,,,0.00,Wunderground v.1.15,2013-09-18 08:15:00,
2013-09-18 03:20:00,68.3,65.3,29.71,South,170,6.0,9.0,90,0.00,,,0.00,Wunderground v.1.15,2013-09-18 08:20:00,
2013-09-18 03:30:00,68.2,65.2,29.70,South,186,5.0,9.0,90,0.00,,,0.00,Wunderground v.1.15,2013-09-18 08:30:00,
2013-09-18 03:40:00,68.2,65.2,29.70,South,177,5.0,5.0,90,0.00,,,0.00,Wunderground v.1.15,2013-09-18 08:40:00,
2013-09-18 03:50:00,68.2,65.2,29.70,South,182,6.0,9.0,90,0.00,,,0.00,Wunderground v.1.15,2013-09-18 08:50:00,
2013-09-18 03:55:00,68.2,65.2,29.70,South,185,6.0,9.0,90,0.00,,,0.00,Wunderground v.1.15,2013-09-18 08:55:00,
2013-09-18 04:00:00,68.3,65.3,29.70,South,171,6.0,6.0,90,0.00,,,0.00,Wunderground v.1.15,2013-09-18 09:00:00,
2013-09-18 04:10:00,68.3,65.3,29.70,South,180,6.0,9.0,90,0.00,,,0.00,Wunderground v.1.15,2013-09-18 09:10:00,
2013-09-18 04:20:00,68.3,65.3,29.70,South,174,7.0,7.0,90,0.00,,,0.00,Wunderground v.1.15,2013-09-18 09:20:00,
2013-09-18 04:30:00,68.1,65.1,29.70,SSE,162,6.0,6.0,90,0.00,,,0.00,Wunderground v.1.15,2013-09-18 09:30:00,
2013-09-18 04:40:00,68.0,65.0,29.69,South,171,5.0,9.0,90,0.00,,,0.00,Wunderground v.1.15,2013-09-18 09:40:00,
2013-09-18 04:50:00,67.8,64.8,29.69,SSE,155,5.0,9.0,90,0.00,,,0.00,Wunderground v.1.15,2013-09-18 09:50:00,
2013-09-18 05:00:00,67.4,64.4,29.69,South,173,4.0,4.0,90,0.00,,,0.00,Wunderground v.1.15,2013-09-18 10:00:00,
2013-09-18 05:05:00,67.3,64.3,29.69,SSE,161,3.0,9.0,90,0.00,,,0.00,Wunderground v.1.15,2013-09-18 10:05:00,
2013-09-18 05:15:00,67.0,64.0,29.69,SSE,157,3.0,9.0,90,0.00,,,0.00,Wunderground v.1.15,2013-09-18 10:15:00,
2013-09-18 05:20:00,66.8,63.8,29.69,SSE,157,2.0,2.0,90,0.00,,,0.00,Wunderground v.1.15,2013-09-18 10:20:00,
2013-09-18 05:30:00,66.8,63.8,29.68,SSE,164,3.0,3.0,90,0.00,,,0.00,Wunderground v.1.15,2013-09-18 10:30:00,
2013-09-18 05:40:00,66.5,63.5,29.68,South,170,2.0,9.0,90,0.00,,,0.00,Wunderground v.1.15,2013-09-18 10:40:00,
2013-09-18 05:50:00,66.5,63.5,29.68,South,175,3.0,9.0,90,0.00,,,0.00,Wunderground v.1.15,2013-09-18 10:50:00,
2013-09-18 06:00:00,66.6,63.6,29.68,South,171,4.0,4.0,90,0.00,,,0.00,Wunderground v.1.15,2013-09-18 11:00:00,
2013-09-18 06:10:00,66.6,63.9,29.68,South,171,3.0,3.0,91,0.00,,,0.00,Wunderground v.1.15,2013-09-18 11:10:00,
2013-09-18 06:15:00,66.5,63.8,29.68,SSE,159,4.0,4.0,91,0.00,,,0.01,Wunderground v.1.15,2013-09-18 11:15:00,
2013-09-18 06:25:00,66.5,63.8,29.67,South,175,4.0,8.0,91,0.00,,,0.01,Wunderground v.1.15,2013-09-18 11:25:00,
2013-09-18 06:30:00,66.4,63.7,29.68,SSE,151,4.0,8.0,91,0.00,,,0.01,Wunderground v.1.15,2013-09-18 11:30:00,
2013-09-18 06:40:00,66.2,63.5,29.68,SSE,161,2.0,8.0,91,0.00,,,0.01,Wunderground v.1.15,2013-09-18 11:40:00,
2013-09-18 06:50:00,66.1,63.4,29.68,SSE,163,3.0,3.0,91,0.00,,,0.01,Wunderground v.1.15,2013-09-18 11:50:00,
2013-09-18 07:00:00,66.3,63.6,29.68,SSE,157,4.0,4.0,91,0.00,,,0.01,Wunderground v.1.15,2013-09-18 12:00:00,
2013-09-18 07:05:00,66.3,63.6,29.68,South,170,4.0,8.0,91,0.00,,,0.01,Wunderground v.1.15,2013-09-18 12:05:00,
2013-09-18 07:10:00,66.5,63.8,29.68,South,174,4.0,10.0,91,0.00,,,0.01,Wunderground v.1.15,2013-09-18 12:10:00,
2013-09-18 07:20:00,66.6,63.9,29.68,SSE,162,5.0,8.0,91,0.00,,,0.01,Wunderground v.1.15,2013-09-18 12:20:00,